Greenville Downtown, SC

8:40 PM EDT on July 21, 2017 (GMT -0400)
Greenville Downtown

Weather History for KGMU - February, 2011

Change the Weather History Date:

Thursday, February 3, 2011

  Actual Average Record
Temperature  
Mean Temperature 36 °F -  
Max Temperature 41 °F 51 °F 70 °F (2014)
Min Temperature 32 °F 34 °F 21 °F (1993)
Degree Days  
Heating Degree Days 28    
Moisture  
Dew Point 21 °F    
Average Humidity 57    
Maximum Humidity 89    
Minimum Humidity 38    
Precipitation  
Precipitation 0.10 in - - ()
Sea Level Pressure  
Sea Level Pressure 30.36 in    
Wind  
Wind Speed 7 mph (ENE)    
Max Wind Speed 14 mph    
Max Gust Speed -    
Visibility 9 miles    
Events Rain    
Averages and records for this station are not official NWS values.
T = Trace of Precipitation, MM = Missing Value Source: NWS Daily Summary

Daily Weather History Graph

Daily Weather History Graph

Search for Another Location

Airport or City:

Trip Planner

Search our weather history database for the weather conditions in past years. The results will help you decide how hot, cold, wet, or windy it might be!

Date:

Astronomy

Feb. 03, 2011 Rise Set
Actual Time 7:26 AM EST 6:00 PM EST
Civil Twilight 7:00 AM EST 6:26 PM EST
Nautical Twilight 6:30 AM EST 6:56 PM EST
Astronomical Twilight 6:00 AM EST 7:26 PM EST
Moon 7:29 AM EST (2/3) 6:49 PM EST (2/3)
Length of Visible Light 11h 26m
Length of Day
10h 33m
New Moon, 0% of the Moon is Illuminated
Feb 3
New Moon
Feb 11
First Quarter
Feb 18
Full
Feb 24
Last Quarter
Mar 4
New

Hourly Weather History & Observations

Time (EST) Temp. Windchill Dew Point Humidity Pressure Visibility Wind Dir Wind Speed Gust Speed Precip Events Conditions
12:53 AM 35.1 °F 29.3 °F 18.0 °F 50% 30.22 in 10.0 mi North 6.9 mph - N/A   Clear
1:53 AM 34.0 °F 27.2 °F 18.0 °F 52% 30.23 in 10.0 mi North 8.1 mph - N/A   Clear
2:53 AM 34.0 °F 27.2 °F 17.1 °F 50% 30.24 in 10.0 mi North 8.1 mph - N/A   Clear
3:53 AM 34.0 °F 31.0 °F 17.1 °F 50% 30.26 in 10.0 mi North 3.5 mph - N/A   Clear
4:53 AM 33.1 °F 23.4 °F 16.0 °F 50% 30.26 in 10.0 mi North 13.8 mph - N/A   Clear
5:53 AM 33.1 °F 28.7 °F 16.0 °F 50% 30.30 in 10.0 mi NNE 4.6 mph - N/A   Clear
7:53 AM 32.0 °F 27.5 °F 16.0 °F 52% 30.37 in 10.0 mi ENE 4.6 mph - N/A   Clear
8:53 AM 34.0 °F 28.0 °F 16.0 °F 48% 30.42 in 10.0 mi ENE 6.9 mph - N/A   Clear
9:53 AM 36.0 °F 28.0 °F 16.0 °F 44% 30.41 in 10.0 mi NE 11.5 mph - N/A   Clear
10:53 AM 37.9 °F 32.1 °F 17.1 °F 43% 30.44 in 10.0 mi ENE 8.1 mph - N/A   Clear
11:53 AM 41.0 °F 35.2 °F 17.1 °F 38% 30.41 in 10.0 mi NE 9.2 mph - N/A   Clear
12:53 PM 41.0 °F 34.3 °F 18.0 °F 40% 30.39 in 10.0 mi East 11.5 mph - N/A   Clear
1:53 PM 41.0 °F 37.1 °F 17.1 °F 38% 30.37 in 10.0 mi ESE 5.8 mph - N/A   Clear
2:53 PM 41.0 °F 38.0 °F 18.0 °F 40% 30.38 in 10.0 mi East 4.6 mph - N/A   Clear
3:53 PM 41.0 °F 35.8 °F 18.0 °F 40% 30.35 in 10.0 mi East 8.1 mph - N/A   Mostly Cloudy
4:53 PM 39.9 °F 37.8 °F 19.0 °F 43% 30.39 in 10.0 mi SE 3.5 mph - N/A   Overcast
5:53 PM 39.9 °F - 19.9 °F 45% 30.40 in 10.0 mi Calm Calm - N/A   Overcast
6:53 PM 39.9 °F - 19.9 °F 45% 30.40 in 10.0 mi Calm Calm - N/A   Overcast
7:53 PM 36.0 °F 33.3 °F 28.9 °F 76% 30.41 in 9.0 mi North 3.5 mph - 0.02 in Rain Light Rain
8:53 PM 36.0 °F 33.3 °F 30.0 °F 79% 30.42 in 7.0 mi NNE 3.5 mph - 0.02 in Rain Light Rain
9:53 PM 35.1 °F 31.0 °F 30.0 °F 82% 30.39 in 7.0 mi ENE 4.6 mph - 0.03 in Rain Light Rain
10:53 PM 35.1 °F 29.3 °F 30.9 °F 85% 30.39 in 8.0 mi ESE 6.9 mph - 0.01 in Rain Light Rain
11:09 PM 33.8 °F 28.6 °F 30.2 °F 87% 30.38 in 7.0 mi SE 5.8 mph - 0.01 in Rain Light Rain
11:37 PM 33.8 °F 30.8 °F 30.2 °F 87% 30.38 in 8.0 mi SE 3.5 mph - 0.02 in Rain Light Rain
11:48 PM 33.8 °F 30.8 °F 30.2 °F 87% 30.38 in 9.0 mi Variable 3.5 mph - 0.02 in Rain Light Rain
11:53 PM 33.1 °F 30.0 °F 30.0 °F 89% 30.40 in 10.0 mi East 3.5 mph - 0.02 in Rain Light Rain